Regional Weather Roundup
Issued by NWS Upton, NY

Current Version | Previous Version | Text Only | Print | Product List | Glossary On
Versions: 1 2 3 4 5 6 7 8 9 10 11 12 13 14 15 16 17 18 19 20 21 22 23 24 25 26 27 28 29 30 31 32 33 34 35 36 37 38 39 40 41 42 43 44 45 46 47 48 49 50
547
ASUS41 KOKX 232007
RWROKX

REGIONAL WEATHER ROUNDUP
NATIONAL WEATHER SERVICE NEW YORK NY
400 PM EDT THU MAR 23 2017

NOTE: "FAIR" INDICATES FEW OR NO CLOUDS BELOW 12,000 FEET WITH NO
SIGNIFICANT WEATHER AND/OR OBSTRUCTIONS TO VISIBILITY.

NYZ071-072-176-178-NJZ106-104-232100-
NEW YORK CITY METRO AREA

CITY           SKY/WX    TMP DP  RH WIND       PRES   REMARKS
Central Park   SUNNY     41  -2  16 NW8G16    30.54F
Wall St Helipt CLEAR     45   3  17 W9        30.53F
LaGuardia APRT MOSUNNY   43  -1  16 NW17      30.52F
Kennedy INTL   MOSUNNY   43   1  17 NW12G20   30.53F
Breezy Point     N/A     41 N/A N/A NW6         N/A
Newark/Liberty MOSUNNY   44  -1  15 NW12G23   30.52F
Teterboro      SUNNY     41   1  18 W13G24    30.51F
$$

NYZ177-179-078>081-232100-
LONG ISLAND NEW YORK

CITY           SKY/WX    TMP DP  RH WIND       PRES   REMARKS
Jones Beach      N/A     39 N/A N/A W9G17       N/A  WCI  33
Matinecock PT    N/A     41 N/A N/A W7          N/A
Farmingdale    SUNNY     40   0  18 NW10G18   30.52F WCI  33
MacArthur/ISP  MOSUNNY   39   1  20 NW16G22   30.51F WCI  30
Shirley        SUNNY     39   1  20 NW13G23   30.52S WCI  31
Westhampton    SUNNY     39  -4  16 NW17G25   30.51F WCI  30
East Hampton     N/A     38  -1  19 NW13G18   30.49R WCI  30
Montauk          N/A     39   6  25 W12G21    30.48F WCI  32
$$

NYZ052-065-067-232100-
HUDSON VALLEY

CITY           SKY/WX    TMP DP  RH WIND       PRES   REMARKS
White Plains   SUNNY     39   1  20 NW10G20   30.49F WCI  32
Newburgh       SUNNY     37   3  23 NW14G25   30.50S WCI  29
Montgomery     SUNNY     39  -2  17 W10G18    30.48F WCI  32
Poughkeepsie   SUNNY     37  -1  20 NW7       30.49F WCI  32
Albany         MOSUNNY   36   6  28 W18G24    30.50F WCI  26
$$

NJZ001-105-106-008-010-013-015-019>022-104-232100-
NEW JERSEY

CITY           SKY/WX    TMP DP  RH WIND       PRES   REMARKS
Newark/Liberty MOSUNNY   44  -1  15 NW12G23   30.52F
Teterboro      SUNNY     41   1  18 W13G24    30.51F
Caldwell       SUNNY     42   1  18 W9        30.52F
Somerville     SUNNY     43   4  19 VRB5      30.51F
Linden           N/A     43   4  20 W9G16     30.53F
Sussex         SUNNY     40   2  20 VRB5      30.50F
Andover          N/A     39  -4  16 NW7       30.50F WCI  34
Trenton        SUNNY     43   8  23 N9        30.53F
Millville      SUNNY     42   9  25 W12       30.56S
Atlantic City  SUNNY     46   2  16 NW10      30.54F
Wrightstown    SUNNY     42   6  23 W7        30.52F
Toms River     SUNNY     42   3  19 NW10      30.54F
Belmar         SUNNY     42   1  18 W9        30.54F
$$

PAZ047>061-062-071-232100-
EASTERN PENNSYLVANIA

CITY           SKY/WX    TMP DP  RH WIND       PRES   REMARKS
Philadelphia   MOSUNNY   43   6  21 SW10      30.56F
Allentown      SUNNY     43   4  19 W8        30.52F
Scranton       SUNNY     36   8  31 N6        30.50F WCI  31
$$

CTZ002-004>006-009-010-012-RIZ004-006-007-MAZ004-011-015-232100-
SOUTHERN NEW ENGLAND
 IN CT

CITY           SKY/WX    TMP DP  RH WIND       PRES   REMARKS
Bradley INTL   MOSUNNY   37   1  22 NW13G24   30.48R WCI  29
Hartford       SUNNY     37   1  22 W15G24    30.49S WCI  28
Danbury        SUNNY     38   0  20 VRB7      30.49F WCI  33
Wtrbury/Oxford SUNNY     34   0  23 NW9G18    30.48S WCI  26
Bridgeport     SUNNY     42   0  17 NW16G24   30.50F
Meriden        SUNNY     38  -1  19 NW13G29   30.49S WCI  30
New Haven      SUNNY     38   1  21 NW10G20   30.50F WCI  31
Chester          N/A     36  -6  17 NW13G21   30.47R WCI  27
Groton         SUNNY     40  -2  17 NW14G23   30.47R WCI  32
Wilimantic     SUNNY     39   1  20 W10G21    30.46S WCI  32

 IN RI

CITY           SKY/WX    TMP DP  RH WIND       PRES   REMARKS
Providence     MOSUNNY   38  -2  18 W17G23    30.44S WCI  28
Block Island   SUNNY     37  10  32 W14G21    30.47S WCI  28
Westerly       SUNNY     41  -3  15 NW12G21   30.46F
 IN MA

CITY           SKY/WX    TMP DP  RH WIND       PRES   REMARKS
Boston         MOSUNNY   38   2  22 NW17G26   30.42S WCI  28
Worcester      SUNNY     33  -4  20 W20G26    30.38S WCI  21
Westfield      SUNNY     36   3  25 NW14      30.46S WCI  27
Provincetown   SUNNY     36   8  31 NW17G23   30.42S WCI  26
Nantucket      SUNNY     35   0  22 W20G28    30.43S WCI  24
$$

ANZ330-335-338-340-345-350-353-355-232100-
COASTAL MARINE OBSERVATIONS


STATION/POSITION TIME  SKY/WX   TEMP    WIND        PRES    VSBY  WAVE
                                AIR SEA DIR/SP/G                  HT/PER
                 (UTC)          (F)     (DEG/KT/KT) (MB)    (MI)  (FT/S)
NY HARB ENTRANCE 1850            35 42  300/ 10/ 12 1034.7          1/ 3
20 S FIRE ISLAND 1950            34 41  290/  8/ 12 1033.9          2/ 3
GREAT SOUTH BAY  NOT AVBL
23 SSW MONTAUK P 1850            32 42              1033.4          3/ 4
15 E BARNEGAT LI 1930               44                N/A           2/11
HUDSON CANYON    1850            32 45  310/ 14/ 16 1034.6          4/ 6
KINGS POINT      1948            38 39              1033.3
EXECUTION ROCKS  NOT AVBL
CENTRAL LI SOUND NOT AVBL
EASTERN LI SOUND NOT AVBL
ROBBINS REEF     1948            39     290/  7/ 13 1033.9
$$


>>>>>>>>>>>>>>>>>>>>>>>>>>>> KEY <<<<<<<<<<<<<<<<<<<<<<<<<<<
>                                                          <
>     SKY/WX - Sky Condition/Present Weather               <
>     TMP    - Temperature in Fahrenheit                   <
>     DP     - Dew Point in Fahrenheit                     <
>     RH     - Relative Humidity in Percent                <
>     WIND   - Direction (from) and Speed in MPH           <
>     PRES   - Mean Sea Level Pressure (inches of Hg)      <
>     WCI    - Wind Chill Index                            <
>     VSB    - VISIBILITY IN MILES                         <
>     HX     - HEAT INDEX                                  <
>     TC     - TEMPERATURE IN CELSIUS                      <
>     VRB    - VARIABLE WIND DIRECTION                     <
>                                                          <
>>>>>>>>>>>>>>>>>>>>>>>>>>>> KEY <<<<<<<<<<<<<<<<<<<<<<<<<<<




USA.gov is the U.S. government's official web portal to all federal, state and local government web resources and services.